Cloud_Cover
87 98 71 100 32 99 100 100 100 100 100 100 98 23 55 68 5 5 66 78 25 13 22 0 3 5 92 83 8 5 95 5 14 13 4 43 100 92 33 10 20 95 100 100 100 60 21 1 83
88 97 85 89 77 100 100 100 100 100 100 100 98 100 93 99 15 100 100 55 44 25 27 0 0 1 9 5 39 100 11 24 5 9 5 5 82 12 5 5 5 96 100 83 100 99 77 0 0
93 83 60 100 100 100 99 100 100 100 100 100 100 100 100 100 88 100 51 51 49 22 11 1 0 0 4 5 3 4 4 11 25 32 43 5 14 7 64 76 4 98 100 100 100 94 0 0 0
83 66 63 76 100 93 81 85 100 100 98 100 100 100 100 100 9 3 55 53 30 26 6 0 0 0 0 5 4 4 5 0 5 5 6 6 14 5 61 16 26 100 100 100 100 100 60 0 0
100 78 97 100 81 100 96 83 92 100 100 100 100 88 33 68 6 71 96 45 88 30 12 0 12 0 0 2 5 0 0 5 0 3 11 0 8 13 8 26 34 87 100 67 82 10 0 0 0
76 12 64 100 97 95 100 91 100 86 100 100 100 100 89 99 99 100 86 43 14 15 34 1 26 60 0 5 5 4 0 6 0 0 2 0 1 6 13 14 47 6 21 26 14 0 0 0 0
68 100 60 57 100 100 100 100 100 88 100 100 100 100 100 100 100 100 65 32 90 29 36 21 0 2 0 0 4 5 31 1 0 0 0 0 0 16 11 4 37 8 6 2 4 0 0 0 2
92 84 14 34 91 100 100 100 100 79 77 95 100 74 100 100 100 98 58 74 99 47 35 20 1 0 0 0 0 0 5 3 0 0 0 0 0 38 17 19 0 5 0 0 0 0 5 5 5
99 79 16 50 99 94 98 99 80 82 84 53 11 5 94 99 100 100 100 100 100 97 52 31 4 0 0 0 18 1 2 0 0 0 0 0 0 0 0 16 0 0 0 0 0 2 50 35 6
93 100 55 35 72 50 31 75 99 75 64 40 99 39 38 99 100 100 100 100 100 100 100 68 10 0 1 4 0 1 0 0 0 0 0 0 0 0 0 0 0 0 0 0 0 0 4 5 5
100 89 81 86 7 5 5 53 100 100 99 76 88 75 81 100 100 100 100 100 100 100 88 99 42 0 3 5 10 4 0 0 0 0 0 0 0 2 0 0 0 0 0 0 1 1 0 5 5
89 100 100 51 44 65 5 5 100 100 100 78 100 78 100 100 100 100 100 100 100 100 98 100 82 12 7 3 5 5 2 0 1 2 0 1 5 5 1 0 0 0 0 5 5 5 9 39 35
0 97 34 68 5 86 66 24 100 100 99 44 99 92 83 92 100 100 100 68 70 100 100 100 100 54 6 79 9 5 5 5 0 0 1 0 1 4 25 14 0 0 3 5 20 78 100 99 91
3 1 36 65 20 75 5 5 9 100 100 8 72 96 92 98 86 99 100 100 20 57 100 100 100 82 65 5 4 4 5 5 2 0 4 0 0 0 0 5 5 5 10 70 52 32 56 57 84
3 5 1 81 31 17 7 2 94 7 55 5 97 95 55 97 99 100 100 100 100 30 42 99 88 96 28 5 77 5 61 10 5 5 5 5 5 5 8 5 46 62 87 89 52 47 38 52 66
5 5 2 2 82 7 12 26 100 2 5 5 82 100 86 100 100 100 100 84 96 99 100 40 41 94 75 22 5 5 5 4 7 42 53 43 5 25 8 30 43 29 99 7 5 8 100 83 100
22 5 19 5 0 3 3 25 100 0 3 2 5 5 38 93 100 100 100 100 100 100 24 41 29 40 98 50 15 5 22 11 40 46 5 24 11 5 5 7 40 35 55 97 83 100 72 88 92
5 63 42 39 9 0 0 1 61 0 0 0 0 5 5 67 100 44 100 100 100 100 100 44 97 82 30 42 56 54 46 99 100 100 92 48 26 40 10 95 97 89 65 29 99 51 43 67 99
76 99 13 88 40 0 0 0 5 0 0 0 0 5 22 90 67 100 100 100 100 100 100 100 88 100 100 60 82 98 100 100 100 100 100 100 94 73 69 54 60 56 89 100 100 96 39 100 100
100 100 95 100 100 3 0 0 5 0 0 0 0 5 97 73 71 96 100 100 100 100 100 100 100 100 98 78 38 41 87 100 100 96 5 8 70 97 99 100 100 100 100 100 99 100 100 88 80
36 84 96 100 96 9 0 0 5 1 0 0 0 1 97 100 96 98 90 100 100 100 100 100 100 100 100 100 100 100 48 39 79 44 24 5 8 64 100 100 100 100 100 100 100 100 100 100 55
81 65 99 100 100 97 4 8 0 4 0 0 0 0 12 100 15 5 7 12 100 100 100 100 100 100 99 100 100 100 100 100 26 11 62 26 74 56 100 99 100 100 100 58 53 87 96 72 71
99 74 92 100 100 100 60 95 0 0 0 0 1 5 5 39 83 28 91 89 55 100 100 100 100 100 100 83 100 100 100 100 100 99 96 34 7 5 82 43 20 93 97 69 25 33 61 62 57
54 57 91 65 95 96 4 16 0 41 5 5 5 5 5 88 84 15 12 63 92 29 71 88 100 100 85 99 95 100 100 82 100 99 100 100 82 50 90 6 22 83 33 71 38 6 60 79 89
90 99 100 100 100 43 4 5 0 59 58 55 74 10 5 6 82 37 5 5 5 50 5 38 9 50 36 100 100 100 100 68 45 100 100 80 84 89 88 100 87 47 75 87 92 54 80 80 89
70 98 93 24 65 5 4 1 0 91 94 80 99 30 5 5 5 16 5 5 52 97 5 45 27 5 5 65 88 90 100 100 100 94 100 100 99 100 98 66 87 76 70 96 63 96 66 97 100
28 5 37 23 90 37 18 0 0 4 96 98 100 100 100 12 4 0 0 0 5 6 63 5 16 64 5 21 49 71 73 83 100 100 76 100 100 78 98 100 100 83 31 29 86 100 98 89 100
74 38 98 100 100 96 4 4 0 0 2 94 37 100 100 100 39 4 0 0 0 13 70 84 87 85 61 5 5 52 84 100 100 100 93 100 98 100 76 86 86 100 91 95 86 100 100 100 100
100 94 97 100 100 63 67 1 0 0 0 0 84 24 96 100 100 29 0 0 5 5 5 28 12 33 88 45 5 5 14 95 100 77 100 100 100 100 100 100 100 98 66 52 89 100 100 100 100
99 8 98 100 96 100 98 15 0 0 0 0 0 10 38 30 100 100 73 3 0 4 5 5 5 79 50 30 5 5 5 7 100 100 97 99 100 100 96 99 100 100 100 100 78 100 100 100 100